Other Surface Observations
Issued by NWS Tucson, AZ

Home | Current Version | Previous Version | Text Only | Print | Product List | Glossary On
Versions: 1 2 3 4 5 6 7 8 9 10 11 12 13 14 15 16 17 18 19 20 21 22 23 24 25 26 27 28 29 30 31 32 33 34 35 36 37 38 39 40 41 42 43 44 45 46 47 48 49 50
692
SXUS55 KTWC 280915
OSOTWC

WEATHER ROUNDUP FOR SOUTHEAST ARIZONA
NATIONAL WEATHER SERVICE TUCSON AZ
215 AM MST WED SEP 28 2016

AZZ504>506-514-281015-
LOCATION       SKY/WX    TMP DP  RH WIND       PRES   REMARKS
TUCSON         MOCLDY    72  57  59 SE16      30.01S
DAVIS-MONTHAN  PTCLDY    69  58  68 SE12      30.00R
CHILDRENS PARK N/A      N/A N/A  85 NE1               PIMA CO DEQ
ALVERNON/22ND  N/A       72 N/A N/A E4                PIMA CO DEQ
CHERRY/GLENN   N/A       67 N/A N/A SW2               PIMA CO DEQ
TANGERINE      N/A       64 N/A N/A NE4               PIMA CO DEQ
CONTL RANCH    N/A       65  59  82 S3                PIMA CO DEQ
GRANT/1ST      N/A       67  58  74 SW2               PIMA CO DEQ
CRAYCROFT/22ND N/A       69  62  78 SE3               PIMA CO DEQ
GOLFLINKS/KOLB N/A       70  59  69 E3                PIMA CO DEQ
AJO/12TH       N/A       70  60  71 S5                PIMA CO DEQ
FAIRGROUNDS    N/A       70 N/A N/A SE12              PIMA CO DEQ
SAGUARO        N/A       77  52  42 E6G12             *SABINO CYN
SAN CARLOS     N/A       66  49  55 W2                *SAN CARLOS
GREEN VALLEY   N/A       64  59  84 S3                PIMA CO DEQ
HORSE CAMP CYN N/A       64  53  68 E10G14            *ARAVAIPA CYN
RINCON MTNS    N/A       51  47  87 E8G17             *NR MANNING CAMP
$$

AZZ509>511-281015-
LOCATION       SKY/WX    TMP DP  RH WIND       PRES   REMARKS
SAFFORD        PTCLDY    66  52  60 S8        30.08R
STRAY HORSE    N/A       52  45  77 E3G10             *
TRAIL CABIN    N/A       55  47  74 E7G10             *N OF GRANVILLE
BLACK HILLS    NOT AVBL
DRY LAKE       N/A       50  46  85 SE6G10            *NATANES MTNS
NOON CREEK     N/A       63  51  66 W3                *PINALENO MTNS
COLUMBINE      N/A       47  40  77 S3G11             *PINALENO MTNS
GUTHRIE        N/A       56  48  75 E9G14             *SW OF GUTHRIE
$$

AZZ502-503-513-281015-
LOCATION       SKY/WX    TMP DP  RH WIND       PRES   REMARKS
NOGALES        PTCLDY    63  55  75 N3        30.07R
SELLS          N/A       68  57  69 E6G10             *
SASABE         N/A       60  57  91 CALM              *ALTAR VLY
HOPKINS        N/A       54  50  87 E20G30            *SANTA RITA MTNS
CARR CYN       N/A       60  54  80 SE2               *W OF HEREFORD
$$

AZZ507-508-512-281015-
LOCATION       SKY/WX    TMP DP  RH WIND       PRES   REMARKS
SIERRA VISTA   CLOUDY    61  56  83 SE13      30.14R
DOUGLAS        CLOUDY    60  56  86 NW3       30.12S
EMPIRE MTNS    NOT AVBL
MULESHOE RANCH N/A       62  54  74 SE3G12            *PRESERVE
HEADQUARTERS   NOT AVBL
$$

.............................NOTES.............................
THIS IS AN AUTOMATED COLLECTIVE WITH MINIMAL QUALITY CONTROL.
PIMA CO DEQ SITES HAVE NONSTANDARD WIND SENSOR HEIGHTS.
PIMA CO DEQ SITES DO NOT REPORT WIND GUSTS.
* INDICATES WIND SENSORS LOCATED AT 20 FEET INSTEAD OF 33 FEET.
..............................KEY..............................
SKY/WX - SKY CONDITION/WEATHER
TMP    - TEMPERATURE IN FAHRENHEIT
DP     - DEWPOINT IN FAHRENHEIT
RH     - RELATIVE HUMIDITY IN PERCENT
WIND   - DIRECTION AND SPEED IN MILES PER HOUR (MPH)
VRB    - VARIABLE WIND DIRECTION
PRES   - MEAN SEA LEVEL PRESSURE IN INCHES OF MERCURY
         F - FALLING PRESSURE   R - RISING PRESSURE
         S - STEADY PRESSURE
VSB    - VISIBILITY IN MILES
HX     - HEAT INDEX IN FAHRENHEIT
WCI    - WIND CHILL INDEX IN FAHRENHEIT
N/A    - NOT AVAILABLE
AFB    - AIR FORCE BASE
         DAVIS-MONTHAN IS DAVIS-MONTHAN AIR FORCE BASE
CYN    - CANYON
MTNS   - MOUNTAINS
NCA    - NATIONAL CONSERVATION AREA
NR     - NEAR
VLY    - VALLEY
CONTL  - CONTINENTAL
PIMA CO DEQ - PIMA COUNTY DEPT OF ENVIRONMENTAL QUALITY



USA.gov is the U.S. government's official web portal to all federal, state and local government web resources and services.